TimeCST,TemperatureF,Dew PointF,Humidity,Sea Level PressureIn,VisibilityMPH,Wind Direction,Wind SpeedMPH,Gust SpeedMPH,PrecipitationIn,Events,Conditions,WindDirDegrees,DateUTC
12:53 AM,16.0,12.0,84,30.24,9.0,Calm,Calm,-,N/A,,Clear,0,2013-01-16 06:53:00
1:53 AM,15.1,12.0,88,30.23,7.0,Calm,Calm,-,N/A,,Clear,0,2013-01-16 07:53:00
2:53 AM,15.1,10.9,84,30.22,7.0,Calm,Calm,-,N/A,,Clear,0,2013-01-16 08:53:00
3:53 AM,16.0,12.9,88,30.20,10.0,SSE,5.8,-,N/A,,Clear,160,2013-01-16 09:53:00
4:53 AM,14.0,12.0,92,30.18,9.0,Calm,Calm,-,N/A,,Clear,0,2013-01-16 10:53:00
5:53 AM,15.1,12.0,88,30.19,9.0,SSE,5.8,-,N/A,,Clear,160,2013-01-16 11:53:00
6:53 AM,15.1,10.0,80,30.20,9.0,South,5.8,-,N/A,,Clear,180,2013-01-16 12:53:00
7:53 AM,16.0,12.0,84,30.21,9.0,South,5.8,-,N/A,,Clear,170,2013-01-16 13:53:00
8:53 AM,21.9,17.1,82,30.21,10.0,South,8.1,-,N/A,,Clear,180,2013-01-16 14:53:00
9:53 AM,28.9,19.0,67,30.21,10.0,SW,8.1,-,N/A,,Clear,220,2013-01-16 15:53:00
10:53 AM,32.0,19.9,61,30.21,10.0,SW,12.7,-,N/A,,Clear,230,2013-01-16 16:53:00
11:53 AM,35.1,21.9,59,30.17,10.0,SW,11.5,-,N/A,,Clear,230,2013-01-16 17:53:00
12:53 PM,37.0,23.0,57,30.14,10.0,SW,13.8,18.4,N/A,,Clear,230,2013-01-16 18:53:00
1:53 PM,39.2,21.2,49,30.10,10.0,SW,11.5,-,N/A,,Clear,230,2013-01-16 19:53:00
2:53 PM,41.0,21.9,47,30.12,10.0,WSW,11.5,-,N/A,,Clear,240,2013-01-16 20:53:00
3:53 PM,41.0,19.9,43,30.13,10.0,WSW,10.4,-,N/A,,Clear,240,2013-01-16 21:53:00
4:53 PM,39.9,19.9,45,30.14,10.0,SW,8.1,-,N/A,,Clear,220,2013-01-16 22:53:00
5:53 PM,34.0,19.9,56,30.15,10.0,SSW,5.8,-,N/A,,Clear,210,2013-01-16 23:53:00
6:53 PM,34.0,19.9,56,30.17,10.0,West,4.6,-,N/A,,Clear,260,2013-01-17 00:53:00
7:53 PM,32.0,19.9,61,30.17,10.0,South,6.9,-,N/A,,Clear,190,2013-01-17 01:53:00
8:53 PM,30.0,19.9,66,30.18,10.0,South,6.9,-,N/A,,Clear,180,2013-01-17 02:53:00
9:53 PM,28.9,19.9,69,30.19,10.0,South,6.9,-,N/A,,Clear,190,2013-01-17 03:53:00
10:53 PM,30.0,19.9,66,30.19,10.0,SW,5.8,-,N/A,,Clear,220,2013-01-17 04:53:00
11:53 PM,30.0,19.9,66,30.20,10.0,SSW,5.8,-,N/A,,Clear,210,2013-01-17 05:53:00